Wind_Speed
26 25 25 25 25 26 26 26 26 27 28 27 27 26 26 26 26 26 26 27 27 28 28 28 28 27 26 26 26 27 27 28 28 29 29 29 30 29 29 29 29 29 30
24 24 24 23 23 24 24 25 25 26 25 25 25 26 25 25 24 24 24 24 25 26 26 26 27 26 26 26 26 26 26 27 28 28 28 28 28 29 29 29 29 29 30
23 23 23 23 23 23 24 24 24 24 24 24 24 24 24 23 23 23 22 22 23 23 24 24 24 24 25 25 25 26 26 25 26 27 28 27 27 28 29 29 30 29 30
22 22 22 22 23 23 23 23 23 23 23 22 22 22 22 22 22 21 21 21 22 22 23 23 23 23 23 24 24 25 25 25 25 25 25 26 27 27 28 28 28 27 28
21 21 21 21 22 21 21 21 21 20 20 20 19 20 20 20 20 19 19 19 20 20 21 21 22 22 22 23 23 23 24 24 25 25 25 24 24 24 24 25 26 26 26
20 20 20 19 19 18 18 18 17 17 17 17 16 17 17 18 17 17 17 17 17 17 17 17 18 19 20 20 20 20 21 21 22 23 23 24 23 23 23 24 24 24 25
18 18 18 17 17 16 15 15 15 14 14 14 14 14 14 14 14 15 14 14 14 14 13 14 15 16 17 17 17 18 19 19 19 20 21 22 21 21 21 21 22 22 23
17 16 16 15 14 14 14 14 13 12 12 11 11 10 10 10 10 11 11 11 11 11 12 13 13 13 14 15 15 15 15 16 17 17 18 18 18 18 18 18 18 20 20
15 14 14 12 12 12 12 11 11 10 10 9 8 7 6 6 6 6 6 7 7 8 9 10 10 9 10 11 11 12 12 13 13 14 14 14 14 15 16 17 17 18 18
13 12 11 10 10 10 9 9 9 8 7 6 5 5 5 4 4 3 3 3 3 4 5 5 5 5 6 7 7 8 8 9 9 9 9 10 11 12 13 13 14 14 14
11 9 9 9 9 8 7 6 7 6 6 5 5 4 4 4 4 3 2 2 1 1 1 1 1 1 1 1 2 3 3 4 5 5 6 7 7 8 9 10 10 11 12
8 8 7 7 7 6 6 6 6 7 6 7 6 6 5 5 6 7 6 5 5 5 5 5 4 4 3 3 2 2 1 2 2 2 3 3 4 5 6 6 7 8 8
7 7 6 6 6 6 6 6 7 7 7 7 8 8 8 8 9 10 10 9 9 9 8 7 6 6 6 5 5 4 4 3 3 2 2 3 3 3 4 4 5 6 7
7 7 6 7 7 8 8 8 8 8 8 9 10 10 10 10 11 11 11 11 11 11 10 10 10 10 9 8 7 7 7 6 5 5 4 4 4 5 5 5 6 6 7
7 7 8 8 8 8 9 9 10 10 10 10 11 12 12 12 12 12 11 12 13 13 13 13 13 12 11 11 10 10 9 9 8 8 7 7 7 7 7 7 7 8 8
8 8 8 9 10 10 10 11 11 12 12 13 13 13 13 13 13 14 14 15 15 15 15 15 15 15 14 14 13 13 12 12 11 11 10 9 9 8 9 9 9 9 9
9 9 10 10 11 12 12 13 14 14 14 14 15 15 16 16 16 16 16 16 17 17 17 16 16 15 15 15 14 14 14 13 12 11 11 11 11 10 10 10 10 10 11
10 11 11 12 13 14 15 15 16 16 16 16 16 17 17 17 17 17 17 17 17 17 17 16 16 16 15 15 14 14 14 14 13 12 12 12 12 12 11 11 11 12 12
13 14 14 14 15 15 16 16 16 16 16 17 17 17 17 17 17 17 18 18 18 17 17 16 16 16 16 15 15 15 14 14 13 13 13 13 13 13 13 13 13 13 13
14 15 15 15 15 15 15 16 16 16 17 17 18 18 18 18 18 18 18 18 18 18 17 16 16 15 15 15 14 14 14 13 13 13 13 13 13 13 14 14 14 14 15
14 14 15 15 15 15 15 15 16 17 17 17 18 18 18 18 18 17 17 17 17 16 16 15 15 15 15 14 14 14 14 14 14 14 14 14 14 14 15 15 16 16 17
13 14 15 15 15 15 15 15 15 16 16 16 16 16 16 16 16 16 16 15 15 15 14 14 14 14 14 14 14 14 14 14 14 15 15 15 16 16 17 17 18 18 19
12 13 14 14 14 15 15 14 15 15 15 15 15 14 14 14 14 14 14 13 13 13 13 13 13 13 13 13 14 14 14 14 15 16 16 17 17 18 18 19 20 21 22
11 12 12 13 13 13 13 14 14 14 14 14 14 13 13 13 13 13 12 12 12 12 12 12 12 12 12 13 13 14 14 15 15 16 17 18 19 20 21 22 23 24 24
10 10 10 10 11 11 12 12 13 13 12 12 12 12 11 11 11 11 11 11 10 10 10 11 11 12 12 13 14 14 15 15 16 17 18 20 21 22 23 24 25 26 27
9 8 8 9 10 10 10 10 10 10 10 10 10 10 10 10 10 9 9 9 9 9 10 10 11 12 13 14 14 15 16 17 18 19 20 22 23 25 26 27 28 29 30
Wind_Direction
294 292 290 289 287 287 286 284 282 280 280 279 278 277 275 274 273 270 267 264 263 261 260 258 256 257 257 259 259 259 258 257 257 257 257 257 258 258 256 258 259 261 264
295 293 292 290 289 288 288 286 285 283 281 279 278 277 277 276 273 271 267 264 263 260 259 256 256 257 258 258 257 257 256 257 258 258 259 259 258 260 260 261 260 262 264
297 296 294 293 293 292 291 290 288 286 284 280 278 277 276 274 271 268 267 264 261 260 258 257 257 257 256 256 257 256 255 256 257 258 257 257 258 261 262 263 265 266 267
298 297 296 295 294 293 293 293 291 288 285 282 279 276 275 272 270 269 267 265 263 259 256 254 255 256 256 256 255 255 255 256 257 257 257 258 259 262 264 264 264 266 268
302 300 298 298 296 294 294 295 294 292 289 286 280 276 275 274 272 270 268 266 264 261 257 254 253 253 253 255 255 255 254 254 255 257 259 261 262 263 264 265 265 266 268
304 302 302 301 300 298 297 299 299 297 295 290 284 281 278 276 273 272 270 267 265 260 258 256 256 253 254 254 253 253 253 254 256 258 260 259 261 263 266 266 266 268 270
308 308 306 304 304 303 302 303 304 303 301 297 292 287 282 279 278 277 272 267 266 261 259 260 259 258 256 256 256 256 255 255 257 260 262 263 264 265 266 267 268 269 272
310 312 311 308 307 306 308 309 310 309 310 308 305 300 294 289 283 280 276 268 265 262 262 261 259 261 255 256 255 257 258 258 260 262 262 263 263 264 264 266 268 270 272
314 314 316 314 312 311 312 312 314 317 321 320 319 316 308 301 295 286 276 270 269 268 266 265 261 257 253 252 253 256 259 261 260 259 260 261 263 265 266 268 270 272 274
320 318 319 320 321 322 326 327 329 330 335 340 343 345 343 341 333 317 301 289 283 278 271 263 259 254 250 249 251 253 256 257 259 262 267 270 270 269 269 270 271 274 276
325 324 325 328 333 337 345 352 355 359 1 8 10 13 18 20 16 6 355 352 4 35 76 98 128 137 178 248 273 266 258 259 266 269 270 272 274 276 278 279 278 281 282
336 335 342 349 356 1 10 20 25 25 25 30 35 40 43 51 50 54 60 75 84 85 81 83 85 81 71 63 59 40 1 320 296 286 291 291 295 297 298 296 293 292 293
352 356 1 5 11 22 33 41 42 41 42 50 59 60 64 66 67 70 75 80 82 81 78 79 81 78 73 69 63 56 52 42 28 11 1 351 342 337 332 324 319 313 308
13 24 29 32 40 48 56 60 58 57 62 67 69 72 74 75 77 77 77 77 79 80 80 82 83 80 74 69 68 64 60 56 50 42 36 31 24 15 5 353 344 338 332
38 44 48 49 54 62 68 71 72 71 75 77 78 78 79 79 78 78 79 80 81 81 81 81 81 79 75 73 71 69 63 60 58 56 54 51 45 36 28 21 10 1 353
59 59 57 59 67 72 76 77 78 80 83 83 82 82 83 82 82 83 84 84 83 82 82 81 79 77 75 72 70 68 66 64 63 61 56 51 45 36 28 21 14 8 2
66 66 65 70 77 78 81 83 84 86 87 86 84 86 85 84 84 85 85 86 85 83 81 80 77 75 73 71 68 67 65 62 59 56 51 44 37 31 25 19 14 8 2
72 73 76 81 84 86 87 87 87 88 89 89 89 89 87 85 85 86 85 84 83 81 80 78 75 74 73 70 67 64 62 59 54 49 44 37 30 25 21 15 10 4 359
78 81 83 87 88 90 89 89 90 91 91 92 92 90 88 87 86 87 85 83 81 79 78 77 76 73 71 68 65 61 56 51 47 42 36 31 27 24 19 14 8 2 357
83 83 85 87 88 89 90 90 90 91 92 93 92 92 91 90 88 87 85 82 80 78 76 75 73 71 68 64 60 55 50 45 39 34 30 27 24 19 14 9 3 358 353
85 87 87 87 88 89 90 92 94 94 94 94 93 93 91 89 88 86 83 81 79 77 75 72 70 66 63 58 53 48 43 39 35 31 26 22 18 13 8 4 359 354 349
91 90 89 89 90 90 92 94 96 96 96 95 95 94 91 88 86 84 82 79 78 75 72 69 65 60 56 51 46 42 37 33 28 23 18 14 9 5 1 357 352 348 344
98 97 94 93 93 94 96 98 98 97 97 96 94 93 90 88 86 84 81 78 74 70 67 63 59 54 49 44 40 36 32 27 22 17 13 8 4 360 356 352 348 343 340
105 103 100 98 96 96 98 100 100 99 98 97 95 93 91 87 85 81 78 73 69 64 60 55 50 45 41 36 32 27 22 18 13 9 5 3 360 356 352 347 343 339 337
112 110 107 105 104 103 103 102 102 101 99 98 96 92 89 85 81 78 73 68 63 57 52 47 42 37 32 27 23 19 14 10 5 1 358 355 353 350 347 344 341 339 336
122 120 116 114 112 112 111 110 108 106 104 101 96 92 88 83 78 72 66 60 55 49 43 36 31 25 21 17 13 8 5 1 358 354 351 347 345 344 342 340 338 336 334
Height
5778 5775 5773 5771 5769 5768 5766 5765 5763 5762 5761 5759 5758 5757 5757 5756 5756 5756 5756 5756 5756 5757 5758 5760 5761 5762 5764 5765 5766 5766 5768 5769 5770 5771 5772 5773 5774 5775 5775 5775 5775 5775 5775
5771 5769 5766 5764 5762 5761 5759 5757 5756 5754 5753 5751 5750 5750 5749 5749 5748 5748 5748 5748 5749 5749 5750 5752 5753 5754 5756 5757 5758 5759 5760 5761 5763 5763 5764 5765 5766 5766 5767 5767 5767 5767 5767
5765 5763 5760 5758 5756 5754 5752 5750 5748 5746 5745 5744 5743 5742 5742 5741 5741 5741 5741 5741 5741 5742 5743 5744 5745 5747 5748 5750 5751 5752 5753 5754 5755 5756 5757 5757 5758 5758 5758 5759 5759 5759 5758
5760 5757 5755 5752 5750 5748 5746 5744 5741 5739 5737 5736 5735 5735 5735 5734 5734 5734 5734 5734 5735 5735 5736 5737 5738 5740 5742 5743 5744 5745 5746 5747 5748 5749 5749 5750 5750 5751 5751 5751 5751 5751 5750
5755 5752 5749 5747 5744 5742 5740 5737 5735 5733 5731 5730 5729 5728 5728 5728 5727 5727 5728 5728 5728 5729 5730 5731 5732 5733 5734 5736 5737 5738 5739 5740 5741 5742 5742 5743 5743 5744 5744 5744 5744 5743 5743
5750 5747 5744 5742 5739 5737 5735 5732 5730 5728 5726 5724 5723 5722 5722 5722 5721 5722 5722 5722 5723 5723 5724 5725 5726 5727 5728 5729 5730 5731 5732 5733 5734 5735 5736 5737 5737 5737 5737 5737 5737 5737 5736
5746 5743 5740 5737 5735 5733 5731 5728 5726 5724 5722 5720 5719 5718 5717 5717 5717 5717 5717 5717 5718 5719 5719 5720 5721 5722 5722 5724 5725 5725 5726 5727 5729 5730 5730 5730 5731 5731 5731 5731 5730 5730 5729
5742 5739 5736 5734 5732 5729 5727 5725 5723 5721 5719 5717 5716 5715 5714 5713 5713 5713 5713 5714 5714 5715 5716 5716 5717 5717 5718 5719 5720 5721 5722 5722 5723 5724 5724 5724 5725 5725 5725 5725 5724 5724 5723
5738 5736 5733 5731 5729 5727 5725 5723 5721 5719 5717 5715 5714 5712 5712 5711 5711 5711 5711 5711 5712 5712 5713 5713 5714 5714 5715 5715 5717 5717 5718 5718 5718 5719 5719 5719 5719 5719 5719 5720 5719 5718 5718
5736 5733 5731 5729 5727 5725 5723 5721 5719 5718 5716 5714 5713 5712 5711 5710 5710 5710 5710 5710 5710 5710 5711 5711 5711 5712 5712 5713 5714 5714 5714 5715 5715 5715 5715 5715 5715 5715 5715 5715 5714 5713 5713
5734 5732 5729 5727 5725 5723 5722 5720 5719 5717 5716 5714 5713 5712 5711 5710 5710 5710 5709 5709 5710 5710 5710 5710 5711 5711 5712 5712 5712 5712 5712 5712 5713 5713 5713 5712 5712 5712 5711 5711 5710 5710 5709
5732 5730 5728 5726 5725 5723 5722 5720 5719 5718 5716 5715 5714 5713 5712 5711 5711 5710 5710 5710 5710 5710 5711 5711 5711 5711 5712 5712 5712 5711 5711 5711 5711 5711 5711 5711 5711 5710 5709 5709 5708 5707 5706
5731 5730 5728 5726 5725 5723 5722 5721 5720 5719 5718 5716 5715 5715 5714 5713 5713 5712 5712 5712 5712 5712 5712 5712 5712 5712 5712 5712 5712 5712 5711 5711 5711 5711 5710 5710 5710 5709 5708 5708 5706 5705 5704
5731 5730 5728 5727 5726 5724 5723 5722 5721 5720 5719 5719 5718 5717 5716 5716 5716 5715 5715 5715 5714 5714 5714 5714 5714 5714 5714 5714 5713 5713 5713 5712 5712 5711 5711 5710 5710 5709 5708 5707 5706 5704 5703
5732 5731 5730 5728 5727 5726 5725 5724 5723 5722 5722 5721 5721 5720 5719 5719 5719 5719 5718 5718 5718 5717 5717 5717 5717 5716 5716 5716 5716 5715 5714 5714 5713 5713 5712 5711 5710 5709 5708 5707 5705 5703 5702
5734 5733 5731 5730 5729 5728 5727 5726 5726 5725 5725 5724 5724 5723 5723 5723 5722 5722 5722 5721 5721 5721 5721 5721 5720 5720 5719 5719 5718 5718 5717 5716 5716 5715 5714 5713 5711 5710 5709 5707 5705 5704 5702
5736 5735 5734 5733 5732 5731 5730 5730 5729 5729 5728 5728 5727 5727 5727 5727 5726 5726 5726 5725 5725 5725 5725 5725 5724 5724 5723 5723 5722 5721 5720 5719 5718 5717 5716 5714 5713 5711 5710 5708 5706 5704 5702
5738 5737 5736 5736 5735 5735 5734 5734 5733 5733 5732 5732 5732 5732 5731 5731 5731 5730 5730 5730 5730 5729 5729 5729 5728 5728 5727 5726 5725 5724 5723 5722 5721 5719 5718 5716 5714 5712 5710 5708 5706 5704 5702
5742 5741 5740 5740 5739 5739 5738 5738 5737 5737 5737 5737 5736 5736 5736 5736 5736 5735 5735 5735 5735 5734 5734 5733 5733 5732 5731 5730 5729 5728 5726 5725 5723 5722 5720 5718 5716 5713 5711 5709 5707 5704 5701
5746 5745 5744 5744 5743 5743 5743 5742 5742 5742 5742 5741 5741 5741 5741 5741 5741 5740 5740 5740 5739 5739 5738 5737 5737 5736 5735 5733 5732 5731 5729 5728 5726 5724 5721 5719 5717 5715 5712 5709 5707 5704 5701
5750 5749 5749 5748 5748 5747 5747 5747 5747 5747 5746 5746 5746 5746 5746 5746 5745 5745 5745 5744 5744 5743 5742 5741 5740 5739 5738 5736 5735 5733 5732 5730 5728 5725 5723 5721 5718 5715 5712 5709 5706 5703 5700
5754 5754 5753 5752 5752 5752 5752 5752 5751 5751 5751 5751 5751 5751 5751 5750 5750 5749 5749 5748 5748 5747 5746 5745 5744 5742 5741 5739 5738 5736 5734 5732 5729 5727 5724 5721 5718 5715 5712 5709 5705 5702 5698
5758 5757 5757 5757 5756 5756 5756 5756 5756 5756 5756 5755 5755 5755 5755 5754 5754 5753 5753 5752 5751 5750 5749 5748 5746 5745 5743 5741 5739 5737 5735 5733 5730 5727 5725 5722 5718 5715 5711 5708 5704 5700 5695
5761 5761 5761 5760 5760 5760 5760 5760 5760 5759 5759 5759 5759 5759 5759 5758 5757 5757 5756 5755 5754 5753 5752 5750 5749 5747 5745 5743 5741 5739 5736 5733 5730 5728 5724 5721 5718 5714 5710 5706 5701 5697 5692
5764 5764 5764 5764 5764 5764 5764 5763 5763 5763 5763 5763 5763 5762 5762 5761 5760 5759 5758 5757 5756 5755 5754 5752 5750 5748 5746 5744 5742 5739 5737 5734 5730 5727 5724 5720 5716 5712 5708 5703 5698 5693 5688
5766 5766 5767 5767 5766 5766 5766 5766 5766 5766 5766 5766 5765 5765 5764 5763 5763 5762 5761 5759 5758 5756 5755 5753 5751 5749 5747 5745 5742 5739 5736 5733 5730 5726 5722 5718 5714 5709 5705 5700 5695 5689 5684